Wind_Speed
19 18 17 16 15 13 11 10 10 9 7 6 5 4 4 3 2 1 2 3 4 5 5 6 7 8 8 8 8 8 9 10 10 11 12 13 13 14 14 15 15 15 16 16 16 16 16 16 16
20 19 18 17 16 13 12 12 11 9 8 7 6 6 5 4 3 2 3 4 5 6 6 7 8 8 9 9 9 10 10 11 12 12 13 14 14 15 15 16 16 17 17 17 17 17 17 17 16
22 21 20 18 16 14 13 13 12 11 10 9 7 6 6 6 4 4 5 6 6 6 8 9 9 9 10 10 11 11 11 12 13 13 14 15 15 16 17 17 18 18 17 17 17 17 17 17 17
23 22 22 19 17 15 15 14 13 12 11 10 9 7 8 7 6 7 7 7 7 8 9 10 10 10 11 11 12 12 12 13 14 14 15 16 17 18 18 18 19 19 18 18 19 19 19 18 18
24 23 22 20 18 16 16 16 15 13 11 10 10 10 10 10 8 8 9 9 9 9 10 11 11 11 12 12 12 13 13 14 15 16 16 17 18 18 19 19 19 19 20 20 20 20 20 19 19
24 24 23 20 18 18 18 18 16 14 12 11 11 11 11 10 9 10 10 10 10 11 11 12 11 11 12 12 13 14 15 15 16 17 17 18 19 19 19 19 20 20 21 21 21 21 21 20 21
24 24 22 20 19 18 18 18 17 15 15 13 12 12 12 11 12 12 12 11 11 12 12 13 12 12 13 14 15 15 16 16 17 18 18 19 19 19 20 20 21 22 22 22 21 21 21 22 22
24 23 22 20 20 19 19 18 18 16 15 13 13 13 12 12 12 13 13 13 13 14 14 14 14 14 14 15 16 16 17 17 18 19 19 20 20 20 21 22 22 22 22 22 22 22 22 22 23
23 22 21 20 19 19 19 18 18 17 15 14 14 14 14 13 13 14 15 15 15 15 15 15 15 15 15 16 17 17 18 18 19 19 20 21 21 21 22 23 23 23 23 23 24 23 23 23 23
21 21 20 20 19 19 19 19 18 17 16 15 14 14 13 14 14 14 16 16 16 16 17 17 16 16 16 17 17 18 18 19 20 20 21 22 22 22 23 24 24 24 24 24 24 24 24 25 25
19 19 20 20 19 20 19 19 18 17 17 16 15 15 14 14 14 14 15 15 17 17 17 18 17 17 17 17 18 18 19 20 21 21 22 22 22 22 23 24 24 25 25 25 25 24 25 25 25
18 17 19 19 19 19 18 18 18 17 16 16 16 16 16 15 14 15 15 16 17 17 18 17 18 17 17 18 19 19 20 21 21 22 22 22 23 24 24 25 26 26 26 26 26 25 26 26 27
16 16 18 19 19 18 18 17 18 17 16 15 15 15 15 14 14 15 15 16 17 18 18 20 19 18 18 19 20 20 21 22 22 23 23 23 24 25 25 26 25 26 26 26 27 27 28 28 28
14 15 16 17 18 17 17 17 17 15 14 14 15 15 15 15 16 16 17 18 19 19 18 19 18 19 19 19 20 20 21 22 23 24 24 25 25 26 26 26 27 27 26 27 28 28 29 29 29
12 14 15 15 16 17 18 16 16 14 15 14 14 14 15 15 15 16 17 18 19 19 19 20 19 19 19 20 20 20 22 23 24 24 25 25 26 27 27 27 28 28 28 28 28 29 29 30 31
11 12 13 13 15 17 17 16 16 15 16 16 15 15 15 16 16 17 18 19 19 19 19 20 21 21 20 21 22 22 23 24 25 25 26 26 27 28 28 28 28 29 29 29 29 29 30 31 31
9 10 11 13 15 16 16 16 16 16 17 17 17 16 17 17 18 18 18 19 19 19 20 20 21 22 22 23 23 23 25 25 25 27 27 27 27 28 29 29 29 29 29 30 30 30 31 31 31
9 10 10 12 14 15 15 15 16 17 18 17 18 18 18 18 18 19 18 19 19 20 20 21 22 22 22 23 25 25 25 25 26 27 27 27 28 29 29 29 29 29 30 31 31 31 31 31 31
9 10 10 12 13 14 15 16 16 18 19 19 18 18 19 19 19 19 19 20 20 21 21 22 23 23 23 25 25 26 27 27 28 27 28 28 29 29 29 30 29 30 31 31 31 31 31 31 31
9 9 10 11 13 14 16 17 17 18 18 18 19 19 20 21 19 19 21 21 21 22 22 23 23 24 24 25 26 26 28 28 28 27 28 29 29 29 30 29 29 30 30 31 30 30 30 30 30
9 10 11 12 13 15 16 16 17 17 17 18 19 19 19 20 19 19 19 20 21 22 23 23 24 25 25 26 27 27 27 27 28 28 28 29 30 30 29 29 29 29 30 29 29 29 29 29 29
10 11 12 13 13 14 15 15 15 16 16 17 17 17 18 18 19 19 19 19 21 22 23 24 24 25 24 25 26 27 27 27 28 28 28 29 29 28 28 29 29 29 29 29 28 28 28 28 28
11 12 12 12 12 13 14 17 15 16 16 16 17 17 18 18 19 20 20 21 22 23 24 25 25 25 25 25 26 28 28 28 27 27 28 28 27 27 28 28 28 28 28 28 28 27 26 26 26
9 10 11 11 12 12 14 15 15 15 16 17 17 17 18 19 20 21 21 22 22 23 24 24 25 25 26 26 26 27 28 27 27 27 27 27 27 27 26 27 27 27 27 28 27 26 25 25 25
10 11 12 13 13 14 15 15 15 15 16 16 16 16 16 17 18 20 21 21 22 23 23 24 25 25 25 24 25 26 26 26 26 26 27 27 26 26 26 26 26 26 26 26 26 26 26 26 25
12 13 15 17 17 17 17 16 15 15 16 16 16 15 15 15 17 19 19 19 20 21 22 23 24 23 23 23 24 25 25 25 25 26 26 26 25 25 25 25 25 25 25 25 25 25 26 25 25
14 14 16 18 20 20 19 16 15 16 15 15 15 16 16 16 17 18 18 19 20 21 22 22 22 21 22 22 22 23 23 23 24 24 25 25 24 23 23 24 24 23 24 24 24 23 23 22 22
16 17 18 19 21 21 19 17 17 17 15 15 16 16 17 17 18 19 18 19 19 19 19 19 18 20 21 21 21 22 22 22 23 23 24 23 23 22 22 22 22 22 22 22 22 21 20 20 20
17 18 19 20 21 22 21 19 19 19 18 17 18 18 18 18 17 17 17 18 18 18 17 16 17 19 20 20 21 20 20 20 21 21 22 22 22 22 20 20 20 20 20 20 18 18 19 19 18
19 19 20 21 22 23 23 21 19 20 20 19 19 19 19 18 18 18 17 17 17 17 17 17 17 18 19 19 20 19 18 19 20 21 21 21 21 21 20 19 19 18 18 18 17 17 17 17 16
Wind_Direction
221 219 220 221 223 220 220 225 227 229 233 243 249 264 283 283 282 293 305 314 317 320 316 312 312 312 313 315 316 315 315 315 314 314 313 313 312 311 310 309 307 306 305 304 304 303 302 300 298
221 220 221 220 222 220 221 228 230 233 237 248 255 266 271 277 276 279 289 301 307 310 307 305 308 309 308 309 309 309 310 310 310 310 309 309 308 307 306 304 304 303 302 301 301 302 302 300 298
221 220 221 221 222 222 225 229 231 234 241 250 256 266 274 276 280 282 287 290 297 301 298 298 302 304 304 305 306 306 306 306 307 308 307 306 304 304 304 302 301 300 301 301 301 300 299 298 297
220 220 222 222 221 221 225 230 235 239 245 252 257 266 269 270 273 273 279 285 289 291 292 293 296 298 299 299 300 302 303 303 304 304 304 303 302 302 301 301 301 299 299 299 299 299 296 294 294
220 220 222 223 222 222 225 229 234 240 248 256 259 267 273 270 267 268 273 281 286 287 288 289 292 292 295 296 298 300 300 300 301 301 301 302 301 301 300 300 300 299 299 298 297 297 294 292 290
219 220 222 221 222 224 227 232 236 240 246 255 259 265 270 272 275 278 277 279 282 285 286 286 288 288 290 292 296 298 298 299 300 300 300 300 299 298 298 298 298 298 297 296 295 296 293 290 288
219 221 221 221 221 225 231 236 240 245 253 257 256 260 264 273 276 278 280 276 278 281 284 285 285 286 289 290 293 295 295 297 298 298 298 298 297 296 296 295 296 295 294 293 292 292 291 289 287
218 221 220 220 223 228 232 238 242 246 252 257 257 260 264 275 280 281 278 275 276 278 280 281 282 285 288 289 291 292 293 294 296 297 296 295 295 294 294 294 294 293 293 291 290 290 289 287 286
219 221 220 221 224 229 233 239 244 249 253 255 259 264 269 275 279 279 276 275 277 280 279 279 280 283 286 287 288 289 290 292 294 295 294 294 294 293 293 293 292 291 291 290 289 288 287 285 284
219 222 220 222 225 230 234 238 244 249 253 256 259 265 270 274 277 280 278 278 280 283 283 280 279 282 285 285 286 288 289 290 292 293 292 293 293 293 292 291 290 289 289 288 287 286 285 282 282
217 219 219 221 225 231 236 238 244 248 252 255 259 266 269 276 277 278 279 281 279 279 281 278 278 282 284 284 284 286 288 290 291 291 291 292 291 291 291 290 289 288 287 287 286 285 284 282 281
215 216 217 221 227 231 236 239 244 249 254 259 263 266 271 277 274 275 279 281 281 281 282 281 280 280 282 283 283 285 287 288 288 289 289 289 289 289 288 290 289 288 287 286 285 284 282 282 281
215 213 216 221 227 231 236 240 244 252 257 263 264 267 271 270 272 275 280 284 284 284 285 285 280 280 282 283 282 285 286 288 287 287 288 288 288 288 287 288 288 287 285 283 283 283 282 282 282
214 212 216 220 227 234 239 242 246 249 255 263 268 272 276 274 276 282 282 282 281 282 284 284 280 278 279 281 283 285 288 288 288 289 289 289 290 290 290 289 289 288 287 284 283 282 281 281 281
212 214 217 221 228 235 242 244 245 250 256 264 273 279 278 279 281 283 284 285 283 283 283 281 278 278 280 284 286 288 291 293 292 291 291 291 291 291 291 291 290 288 287 287 285 283 282 282 282
213 218 223 226 232 239 245 245 246 253 260 265 271 277 279 282 283 283 285 286 285 283 283 283 285 285 285 287 287 289 290 291 290 290 290 291 291 290 290 290 290 289 287 286 286 285 284 283 283
211 212 221 229 234 240 247 249 250 258 265 269 270 273 277 280 281 282 284 283 283 284 285 285 287 287 287 288 288 289 289 289 290 292 291 291 292 291 292 290 288 288 287 286 287 287 285 284 283
223 228 230 234 239 246 252 256 258 262 269 271 271 270 272 277 280 283 285 285 285 286 289 289 287 286 289 290 288 288 289 291 293 293 293 294 294 293 291 290 288 288 287 288 288 288 286 285 284
240 244 248 249 254 258 262 263 266 268 272 274 273 275 274 279 282 283 283 285 287 288 288 290 289 290 290 290 291 290 289 291 293 293 293 295 295 293 292 290 289 289 289 289 289 288 287 286 285
250 251 255 256 263 268 271 273 274 272 273 276 277 278 278 280 281 284 284 285 286 288 289 288 289 291 291 292 292 290 290 290 292 294 294 295 295 293 292 291 290 291 291 291 291 289 287 286 286
257 259 263 268 271 274 277 276 277 276 275 276 278 280 281 284 285 286 288 288 286 287 289 292 291 291 292 293 292 290 290 290 292 294 294 296 296 295 294 292 292 293 293 291 292 290 288 287 286
262 266 268 276 276 277 279 277 276 279 279 279 279 280 282 283 284 288 291 291 290 290 291 292 293 294 295 295 294 292 292 293 293 294 295 295 295 295 294 295 293 293 293 292 292 292 290 288 287
270 273 275 280 282 283 284 284 282 282 284 284 283 281 280 280 283 287 290 292 291 292 292 293 292 294 294 295 294 295 294 293 294 296 296 296 295 296 296 295 293 293 292 291 292 292 290 289 289
282 278 279 282 285 289 292 292 289 287 287 286 283 278 277 281 286 289 291 292 291 294 294 294 294 294 293 295 296 297 295 293 295 297 296 296 296 296 296 295 295 294 292 291 290 290 289 289 289
292 288 284 285 289 293 298 298 296 292 290 288 286 282 279 282 289 291 292 294 294 298 298 297 300 297 297 297 297 297 294 294 296 296 298 297 296 295 294 295 295 294 293 290 288 288 287 288 288
288 288 290 292 295 298 302 302 303 299 295 291 289 288 287 290 291 293 294 296 299 300 299 300 302 300 301 299 298 296 295 296 297 298 299 298 296 296 296 296 296 295 294 291 289 289 289 287 286
289 288 289 292 295 299 303 306 306 304 300 295 292 291 291 293 293 293 296 299 301 302 301 301 301 302 304 303 302 301 300 301 302 302 302 300 298 297 297 297 297 298 298 294 292 292 291 290 290
288 290 290 291 295 299 302 306 307 307 304 301 298 294 293 293 293 293 295 298 301 304 305 305 304 304 304 304 306 305 304 305 306 307 305 302 301 302 302 302 302 304 305 303 298 296 295 294 292
283 283 286 289 292 296 299 302 303 305 307 306 303 301 294 293 293 294 296 299 303 306 308 307 306 307 306 307 309 308 308 310 311 312 312 309 307 305 306 305 307 309 309 308 304 300 299 296 294
286 285 286 287 288 291 295 300 299 299 300 300 300 301 300 299 296 293 296 299 303 305 307 307 307 309 310 312 315 314 314 314 316 318 319 316 311 307 305 305 307 309 310 309 307 305 303 299 297
Height
5874 5877 5879 5881 5883 5884 5885 5886 5886 5888 5889 5890 5890 5891 5891 5891 5892 5895 5894 5893 5893 5893 5893 5893 5893 5892 5892 5891 5890 5890 5889 5889 5889 5888 5888 5888 5887 5887 5886 5886 5885 5884 5883 5883 5882 5881 5880 5879 5879
5872 5875 5877 5879 5881 5882 5884 5885 5886 5887 5888 5889 5890 5890 5890 5890 5890 5891 5891 5892 5892 5892 5892 5892 5892 5891 5890 5890 5889 5889 5888 5888 5887 5887 5886 5886 5885 5885 5884 5883 5882 5881 5880 5880 5879 5878 5878 5877 5876
5869 5872 5875 5877 5879 5881 5883 5883 5884 5885 5887 5888 5889 5889 5889 5889 5889 5890 5890 5890 5891 5891 5891 5891 5891 5890 5889 5889 5888 5887 5887 5886 5886 5885 5884 5883 5883 5882 5881 5880 5879 5878 5877 5877 5876 5875 5875 5874 5874
5866 5870 5873 5875 5877 5880 5881 5882 5883 5884 5885 5886 5888 5888 5888 5889 5888 5889 5889 5889 5889 5889 5890 5889 5889 5888 5888 5887 5887 5886 5885 5884 5884 5883 5882 5881 5880 5879 5879 5877 5876 5875 5875 5874 5873 5872 5871 5871 5870
5863 5867 5870 5873 5875 5877 5878 5879 5881 5882 5884 5885 5886 5886 5887 5887 5886 5887 5888 5888 5888 5888 5888 5888 5887 5887 5886 5885 5885 5884 5883 5882 5881 5880 5879 5879 5877 5876 5875 5874 5873 5872 5871 5870 5869 5868 5868 5867 5866
5861 5864 5868 5870 5873 5875 5876 5877 5879 5881 5882 5883 5884 5885 5885 5885 5885 5886 5885 5885 5886 5886 5886 5886 5885 5884 5884 5883 5882 5882 5881 5880 5879 5878 5877 5876 5875 5873 5872 5871 5870 5869 5868 5867 5866 5865 5864 5863 5862
5859 5862 5865 5868 5871 5872 5874 5876 5877 5879 5880 5881 5882 5883 5883 5883 5883 5883 5883 5883 5884 5884 5884 5883 5883 5882 5881 5881 5880 5879 5878 5877 5876 5875 5874 5873 5872 5870 5869 5868 5867 5865 5864 5863 5862 5861 5860 5859 5858
5855 5860 5862 5865 5868 5870 5872 5873 5875 5876 5877 5879 5880 5880 5881 5881 5881 5881 5881 5881 5881 5882 5881 5881 5880 5879 5878 5878 5877 5876 5875 5874 5873 5872 5871 5870 5869 5867 5866 5865 5863 5862 5860 5859 5858 5857 5856 5855 5854
5853 5858 5860 5863 5865 5868 5869 5871 5873 5874 5876 5877 5878 5878 5879 5879 5879 5879 5879 5879 5879 5879 5878 5878 5877 5876 5875 5875 5874 5873 5872 5871 5870 5869 5867 5866 5865 5863 5862 5861 5859 5858 5856 5855 5853 5852 5851 5850 5849
5851 5855 5858 5860 5862 5864 5866 5868 5870 5872 5873 5874 5875 5876 5876 5877 5877 5877 5876 5876 5876 5876 5875 5874 5874 5873 5872 5871 5871 5870 5868 5867 5866 5865 5863 5862 5861 5859 5858 5856 5855 5853 5852 5850 5849 5848 5846 5845 5844
5849 5852 5855 5857 5860 5861 5863 5866 5867 5869 5871 5872 5873 5874 5874 5874 5874 5874 5873 5873 5873 5872 5872 5871 5870 5869 5869 5868 5867 5866 5865 5864 5862 5861 5859 5858 5856 5854 5853 5851 5849 5848 5847 5845 5843 5842 5841 5840 5839
5847 5850 5852 5855 5857 5859 5861 5863 5865 5866 5868 5869 5870 5871 5871 5871 5871 5870 5870 5870 5870 5869 5868 5867 5866 5866 5865 5864 5863 5862 5861 5860 5858 5856 5855 5853 5851 5849 5847 5846 5844 5842 5841 5839 5838 5837 5836 5834 5833
5846 5848 5851 5853 5855 5857 5859 5861 5862 5864 5865 5865 5866 5867 5868 5868 5868 5867 5867 5867 5866 5865 5864 5863 5862 5861 5860 5859 5858 5857 5856 5855 5853 5851 5849 5848 5846 5844 5842 5840 5838 5836 5835 5834 5832 5831 5830 5829 5827
5844 5847 5850 5852 5854 5856 5857 5859 5860 5862 5862 5863 5864 5865 5865 5865 5865 5864 5864 5863 5862 5861 5860 5859 5857 5856 5855 5855 5853 5852 5851 5849 5848 5846 5844 5843 5841 5838 5836 5835 5833 5831 5829 5828 5826 5825 5823 5822 5821
5843 5846 5849 5850 5852 5854 5855 5857 5858 5860 5860 5861 5862 5862 5862 5862 5862 5861 5860 5860 5858 5857 5856 5854 5852 5851 5850 5849 5848 5847 5845 5844 5842 5841 5839 5837 5835 5833 5831 5829 5826 5824 5823 5821 5820 5818 5816 5815 5814
5843 5845 5847 5849 5850 5852 5855 5855 5856 5857 5858 5858 5859 5859 5859 5858 5858 5858 5857 5856 5854 5853 5852 5849 5848 5847 5845 5844 5843 5842 5840 5839 5837 5835 5833 5831 5829 5826 5824 5822 5820 5818 5816 5814 5812 5811 5809 5807 5805
5842 5844 5846 5848 5848 5849 5851 5852 5854 5854 5855 5855 5856 5855 5855 5854 5854 5853 5852 5851 5850 5849 5847 5845 5844 5842 5841 5839 5838 5836 5835 5833 5831 5829 5827 5824 5822 5820 5818 5816 5813 5811 5809 5807 5805 5803 5801 5799 5797
5842 5843 5844 5845 5846 5847 5848 5849 5851 5851 5851 5851 5851 5851 5851 5850 5849 5849 5847 5846 5845 5844 5842 5841 5839 5838 5836 5834 5833 5831 5830 5828 5825 5823 5821 5818 5816 5813 5811 5808 5806 5804 5802 5800 5797 5795 5793 5791 5789
5841 5842 5843 5844 5844 5845 5846 5847 5847 5847 5847 5847 5847 5847 5846 5846 5844 5843 5842 5841 5840 5838 5837 5835 5834 5833 5831 5829 5827 5825 5824 5822 5819 5817 5815 5812 5809 5807 5804 5802 5799 5797 5794 5792 5789 5787 5785 5782 5781
5840 5841 5842 5843 5843 5843 5843 5844 5844 5844 5844 5843 5843 5842 5841 5841 5840 5839 5838 5837 5835 5834 5832 5830 5829 5827 5826 5824 5822 5820 5818 5816 5813 5810 5808 5805 5803 5800 5797 5794 5792 5789 5787 5784 5781 5779 5777 5774 5772
5840 5840 5841 5841 5841 5841 5841 5841 5841 5841 5840 5840 5839 5838 5837 5836 5835 5835 5834 5832 5831 5829 5828 5826 5824 5822 5820 5818 5816 5813 5811 5809 5807 5804 5801 5799 5796 5793 5790 5787 5785 5782 5779 5776 5773 5771 5768 5766 5764
5839 5839 5839 5838 5838 5838 5838 5838 5838 5837 5837 5836 5835 5834 5833 5832 5831 5830 5829 5828 5826 5824 5822 5820 5818 5816 5814 5812 5810 5807 5805 5803 5800 5798 5795 5792 5789 5786 5783 5780 5777 5774 5772 5769 5766 5763 5761 5759 5757
5837 5837 5837 5836 5835 5836 5836 5835 5836 5834 5833 5832 5831 5830 5830 5829 5827 5826 5825 5823 5821 5818 5817 5815 5812 5810 5808 5806 5804 5801 5798 5796 5794 5791 5788 5785 5782 5779 5776 5773 5770 5767 5764 5762 5759 5756 5754 5752 5750
5835 5835 5835 5834 5834 5834 5833 5832 5832 5830 5829 5828 5827 5826 5826 5825 5823 5821 5820 5818 5816 5813 5811 5809 5807 5805 5802 5800 5797 5794 5792 5789 5787 5784 5781 5778 5775 5772 5769 5766 5763 5760 5757 5755 5752 5750 5747 5745 5743
5834 5834 5833 5832 5832 5832 5830 5829 5829 5827 5826 5825 5824 5822 5821 5820 5819 5817 5815 5813 5811 5809 5806 5804 5801 5799 5796 5793 5791 5788 5785 5782 5780 5777 5774 5771 5768 5765 5762 5759 5756 5753 5750 5747 5745 5743 5741 5739 5737
5832 5832 5831 5830 5829 5828 5827 5825 5826 5824 5822 5821 5820 5819 5818 5816 5815 5813 5811 5808 5806 5804 5801 5798 5796 5793 5790 5788 5785 5782 5779 5776 5773 5771 5767 5764 5761 5758 5755 5752 5749 5746 5743 5741 5738 5736 5734 5732 5730
5828 5828 5828 5827 5825 5824 5823 5823 5822 5820 5818 5817 5816 5815 5813 5812 5810 5809 5806 5804 5802 5799 5796 5793 5791 5788 5785 5782 5780 5777 5774 5771 5767 5764 5761 5758 5755 5752 5749 5746 5743 5740 5737 5734 5732 5729 5727 5726 5724
5826 5825 5824 5823 5821 5820 5820 5819 5819 5816 5815 5813 5812 5811 5809 5808 5806 5804 5802 5800 5797 5794 5791 5788 5786 5784 5780 5778 5774 5772 5769 5766 5762 5759 5756 5752 5748 5745 5743 5740 5738 5735 5732 5728 5726 5724 5722 5721 5719
5822 5822 5820 5819 5818 5816 5815 5817 5815 5812 5811 5810 5808 5806 5804 5803 5801 5799 5797 5795 5793 5790 5788 5785 5782 5780 5777 5774 5770 5767 5764 5761 5758 5754 5750 5747 5743 5740 5738 5735 5733 5730 5727 5724 5721 5719 5718 5716 5715
5817 5817 5816 5815 5814 5812 5810 5813 5810 5808 5806 5805 5803 5802 5800 5798 5796 5795 5793 5791 5789 5786 5783 5781 5778 5776 5773 5769 5766 5763 5760 5757 5754 5750 5746 5742 5739 5735 5733 5731 5729 5726 5723 5720 5717 5716 5714 5712 5711